Wind_Speed
10 11 8 3 7 10 11 10 7 12 13 21 19 21 26 30 35 42 45 47 37 33 25 17 13 17 18 22 24 24 23 20 16 12 8 7 6 7 6 6 4 2 3 3 3 4 2 3 7
11 12 8 4 1 7 6 3 5 13 16 27 17 20 23 28 38 41 44 50 36 34 25 16 12 16 19 22 21 22 20 17 14 14 13 9 6 6 7 3 2 1 7 4 5 4 3 3 3
13 13 9 4 1 3 8 11 13 14 16 19 21 25 22 29 40 39 44 47 32 33 24 16 13 15 18 20 21 20 18 19 22 23 21 16 13 12 10 5 2 3 5 7 11 11 12 10 8
15 14 9 6 5 5 3 8 9 6 10 9 10 20 21 29 38 35 44 45 32 33 26 18 13 15 18 19 20 18 17 25 31 27 25 26 28 29 26 22 18 18 18 18 15 12 11 11 11
17 15 11 10 6 9 4 3 5 12 4 6 19 17 22 27 29 35 42 40 31 31 27 21 15 14 16 20 18 17 23 37 35 45 46 49 49 44 40 35 29 24 24 25 22 20 17 17 18
21 17 13 11 7 10 2 4 6 10 6 10 17 17 22 20 28 33 39 36 29 30 29 22 21 17 19 19 19 20 29 36 35 38 41 44 43 45 44 42 40 37 34 32 32 29 26 23 22
23 20 16 16 11 12 1 7 9 17 17 18 14 16 20 20 27 29 38 33 27 29 29 22 20 21 22 21 22 25 32 31 32 34 35 37 35 35 37 39 38 34 34 31 29 26 29 27 24
30 25 22 18 12 15 2 8 7 12 19 19 19 22 16 23 22 25 35 32 24 26 27 26 25 23 24 23 25 27 31 28 28 27 28 33 35 32 31 32 33 32 26 28 27 26 26 23 22
33 29 27 23 16 17 12 4 9 11 14 22 17 18 18 16 18 25 31 34 24 23 25 27 25 24 23 23 23 26 27 28 28 24 26 31 32 33 35 33 31 30 28 24 25 25 24 22 21
36 33 31 28 24 21 18 17 11 13 19 20 16 13 8 11 15 25 29 33 24 20 21 24 25 23 22 22 22 23 20 18 23 24 21 23 28 28 31 32 30 29 29 23 21 20 21 19 22
38 35 35 32 29 26 23 22 12 16 18 21 13 6 1 10 17 20 26 30 24 17 15 18 21 24 22 19 20 15 15 15 11 17 24 27 25 24 27 28 30 31 29 28 25 23 22 21 20
39 36 39 37 34 31 28 24 16 15 11 12 14 2 3 10 17 18 23 26 27 15 11 13 15 19 23 22 18 17 15 17 16 17 15 17 20 22 24 27 31 33 33 33 30 29 27 25 24
44 39 38 39 38 36 33 26 23 14 6 12 9 11 7 8 21 17 19 21 25 14 10 8 10 14 18 20 20 17 15 17 17 16 19 19 21 21 22 26 30 33 33 32 30 31 29 28 27
46 43 43 40 42 38 35 30 23 23 10 8 14 16 14 16 19 23 16 20 20 19 8 5 5 8 12 12 14 18 15 18 19 18 19 21 21 19 22 25 28 30 31 31 30 31 31 30 29
51 49 48 45 44 41 36 35 35 29 23 21 20 19 19 17 20 16 22 17 17 20 11 3 3 4 4 10 12 15 17 18 17 15 20 21 20 19 22 23 24 27 28 31 31 30 31 31 31
55 52 49 50 49 44 41 40 36 36 33 26 25 18 22 19 14 8 15 14 17 18 14 4 1 4 2 6 11 14 15 19 19 16 17 19 20 21 20 19 23 24 26 29 30 31 32 30 30
62 58 53 51 50 46 47 42 40 36 39 31 25 23 23 19 14 10 16 12 10 17 13 8 3 6 5 5 9 13 13 14 15 13 14 18 17 18 19 16 20 23 23 25 29 31 32 31 28
66 62 56 52 50 47 47 42 37 36 37 37 28 26 24 21 21 18 16 15 10 19 14 9 6 9 9 8 10 12 12 13 12 11 13 15 14 15 14 15 18 20 22 23 26 28 32 33 35
68 67 63 60 57 52 49 47 43 40 37 37 33 30 29 25 20 14 15 11 15 20 13 11 9 12 14 11 13 14 14 12 10 11 11 12 13 14 13 14 16 19 21 22 24 26 28 32 35
65 69 70 65 61 57 52 49 46 44 43 39 36 34 31 25 22 15 12 17 16 21 13 12 11 14 16 16 14 15 16 13 9 11 8 11 11 14 13 12 13 15 17 21 26 25 24 25 30
62 69 72 69 64 63 59 55 51 46 45 43 41 35 32 26 25 16 24 18 14 18 14 13 14 16 20 20 16 17 16 14 13 12 9 11 8 11 11 11 10 10 15 19 22 21 22 21 23
65 73 72 71 66 64 62 58 57 51 50 47 44 38 35 31 29 28 27 23 22 23 18 17 16 17 24 22 20 18 18 16 14 13 10 10 8 8 7 8 8 7 10 16 18 17 19 21 20
76 74 73 68 64 63 63 59 57 57 59 57 49 43 39 37 34 38 33 26 24 25 21 20 18 19 26 26 24 21 18 17 13 12 11 9 9 7 7 5 7 5 7 11 14 16 16 20 19
80 75 75 69 66 61 58 60 59 60 61 61 55 50 45 40 41 39 36 28 21 21 24 24 20 22 23 28 27 24 22 18 14 13 13 10 8 8 5 4 5 2 4 8 12 13 16 17 18
81 81 79 75 69 65 65 58 60 61 62 62 58 53 48 47 47 44 40 33 25 19 26 21 19 24 23 29 28 28 26 24 19 16 15 14 10 9 7 4 3 1 2 5 8 11 13 14 15
81 81 80 78 75 72 70 66 64 63 62 61 55 54 54 54 54 48 43 39 33 27 26 23 18 24 21 24 31 30 30 27 24 21 17 16 14 10 6 3 3 1 2 3 4 6 11 13 12
85 83 80 81 81 78 78 73 71 68 62 56 53 54 54 55 57 54 47 40 37 38 34 27 20 24 22 22 29 33 32 31 28 24 21 18 15 12 10 6 5 3 3 3 2 4 7 11 11
89 88 86 83 81 80 81 81 76 72 65 60 54 56 54 52 49 56 50 38 38 36 37 33 27 29 26 24 26 30 33 34 32 28 26 22 18 15 13 10 10 8 6 4 3 3 4 6 9
93 90 88 88 86 83 82 83 78 76 71 66 62 59 55 49 43 44 45 39 34 41 40 36 28 28 32 30 28 29 33 33 33 33 31 27 23 20 18 15 14 11 10 5 4 4 4 5 5
100 97 92 89 89 90 87 87 81 79 75 71 67 63 60 55 50 50 46 43 46 42 37 36 32 31 32 25 28 29 30 34 34 35 33 31 28 25 22 22 19 15 13 10 7 7 6 6 6
Wind_Direction
170 154 152 101 112 52 86 123 8 2 360 8 359 359 358 356 5 7 2 12 14 17 15 17 41 54 52 49 52 51 49 52 52 47 29 1 328 303 308 307 332 12 21 308 322 318 334 261 229
176 167 163 172 5 359 40 91 105 323 354 357 357 356 353 1 4 7 4 8 14 17 19 23 59 57 54 51 54 58 62 59 52 44 40 27 348 313 293 306 352 236 337 342 13 57 77 120 99
185 179 186 197 173 30 64 51 145 283 337 2 4 351 359 5 3 359 0 5 16 18 20 32 70 68 56 52 60 67 65 59 53 51 50 43 36 29 36 40 351 329 35 66 81 78 83 81 50
197 193 175 171 125 82 329 16 329 277 321 353 330 343 353 339 340 359 2 5 17 20 26 31 65 72 59 57 65 64 62 70 72 68 61 64 65 62 62 68 74 90 87 72 66 68 62 53 50
199 190 172 165 144 126 99 319 43 189 202 260 319 329 336 332 351 3 3 7 19 22 33 38 61 65 62 69 68 64 83 87 83 81 76 72 71 70 69 70 74 84 83 80 80 71 65 65 70
208 199 186 191 189 161 102 322 221 292 248 280 316 327 330 336 350 359 7 14 23 25 25 36 63 62 65 74 68 80 88 96 92 85 77 71 73 75 70 76 78 80 84 85 82 81 78 79 72
213 210 201 199 185 183 59 209 232 267 284 297 323 322 328 338 331 3 13 18 26 28 27 45 56 68 72 75 75 93 102 102 93 88 83 65 72 74 70 74 75 77 82 82 78 78 73 74 70
215 214 216 208 207 184 221 219 231 269 278 282 296 313 316 315 350 5 16 22 30 31 31 42 57 70 74 77 96 102 112 106 90 82 73 64 65 70 70 73 69 69 73 73 72 72 69 61 53
215 215 220 216 207 202 199 139 297 263 266 280 303 310 317 3 4 10 19 20 30 35 36 44 56 67 77 84 100 110 112 107 86 85 77 74 68 69 63 62 64 65 68 62 62 60 53 56 46
215 215 223 218 215 222 238 237 259 276 289 269 315 313 344 346 9 8 16 18 31 37 38 44 53 66 77 86 110 105 107 119 87 85 73 65 69 64 54 60 64 62 61 63 58 52 49 52 44
216 216 221 221 224 227 232 239 244 257 253 303 305 310 64 332 354 3 17 15 29 36 45 36 50 63 72 86 94 114 99 98 106 92 75 69 71 63 51 63 60 61 51 46 44 47 43 39 39
219 218 224 227 229 229 233 237 231 275 265 302 298 269 13 315 342 2 11 12 18 36 33 38 50 64 72 79 86 96 102 97 104 91 82 67 69 57 58 60 60 53 46 45 53 55 52 46 44
220 221 225 228 230 231 232 232 230 231 262 284 262 252 237 294 330 345 6 8 8 30 25 36 54 62 76 84 74 92 98 113 103 94 79 69 71 69 62 61 58 52 46 49 51 51 50 50 46
223 223 227 227 229 230 226 225 219 218 235 231 254 267 275 298 306 335 350 2 3 12 30 16 84 62 69 82 90 90 98 106 105 87 85 82 80 78 73 63 58 51 47 48 53 46 48 48 46
225 223 225 228 229 230 230 220 218 218 241 233 243 266 266 280 298 326 1 355 354 359 13 32 123 97 72 80 106 110 107 102 102 100 88 84 81 74 71 65 60 53 50 49 49 47 44 45 47
225 225 226 227 230 231 236 233 230 227 237 244 260 244 245 284 287 305 350 346 350 352 357 353 125 164 99 120 118 111 114 112 105 98 89 83 77 76 71 68 62 57 53 53 51 47 45 44 44
227 225 224 228 232 234 236 240 239 236 237 239 243 240 253 262 287 292 320 339 339 343 342 332 242 183 188 172 144 132 126 119 110 107 93 84 72 71 74 72 65 64 55 54 55 50 48 44 44
226 227 226 226 229 231 235 236 239 238 240 245 239 248 254 262 283 283 293 309 324 325 319 316 234 209 201 179 176 154 149 132 119 103 90 82 75 72 79 77 71 65 58 55 56 51 49 46 45
227 227 225 226 230 228 233 234 232 235 239 242 241 245 250 260 262 295 288 306 310 307 290 286 222 215 206 196 196 183 176 165 161 127 112 102 88 71 74 71 72 63 60 54 56 52 51 49 48
228 230 228 225 225 231 232 234 232 232 231 235 239 243 248 256 260 258 257 286 297 300 284 265 235 215 206 211 206 202 191 181 176 138 133 118 95 73 81 77 76 62 54 54 54 51 51 49 50
226 231 230 227 227 228 230 233 233 234 232 232 235 237 242 251 255 242 250 281 305 302 282 253 233 211 211 209 207 204 192 184 167 152 162 137 125 91 85 90 81 62 50 50 54 53 53 49 46
227 232 232 229 227 228 230 230 234 232 236 235 232 232 237 241 244 229 243 268 288 298 279 256 230 214 208 209 214 208 200 197 176 155 176 155 147 121 106 101 93 60 44 44 48 54 56 55 50
228 233 233 232 229 230 230 230 231 230 231 235 235 233 233 235 243 243 252 252 271 284 276 254 232 222 210 208 214 209 205 202 187 174 176 174 168 142 161 111 104 76 38 48 50 53 56 54 53
230 231 236 233 231 227 229 231 230 230 231 234 235 238 235 236 238 246 248 246 268 282 282 255 229 220 217 210 212 212 205 205 198 182 185 184 186 181 166 147 128 102 43 41 46 47 49 52 49
229 228 232 233 231 227 226 223 230 230 231 234 234 236 237 237 238 239 237 238 255 266 281 245 228 226 218 216 211 214 214 213 209 202 192 184 187 190 211 136 139 93 14 30 38 40 44 50 49
230 230 230 232 229 227 228 224 224 232 234 233 236 238 239 238 238 240 241 244 246 251 260 251 220 232 221 224 217 213 218 220 215 213 205 202 196 186 205 185 193 191 285 333 19 31 33 44 47
229 229 229 231 231 229 230 227 226 229 233 235 232 232 232 237 238 239 238 243 239 241 252 252 215 224 218 222 229 220 218 220 221 222 215 213 209 204 202 208 239 225 252 273 317 27 27 33 45
228 229 229 228 230 229 230 228 228 230 230 235 233 231 232 233 238 240 240 234 232 239 255 252 211 210 214 217 223 227 226 222 224 222 224 225 227 228 228 218 237 247 259 287 337 354 4 14 27
229 229 230 230 229 228 229 233 229 230 228 231 233 233 232 232 231 223 233 220 239 245 248 238 221 220 217 212 213 222 225 225 227 227 226 229 233 238 240 236 240 251 256 267 303 350 359 344 355
228 230 228 229 230 229 227 231 228 231 229 227 229 232 231 228 221 216 222 218 231 239 235 224 222 219 233 226 215 215 222 221 223 228 233 234 236 241 242 248 250 256 266 278 284 297 317 325 323
Height
11000 11001 11002 11003 11003 11002 11004 11005 11005 11002 10999 10997 10996 10994 10990 10986 10982 10975 10968 10959 10953 10949 10946 10942 10940 10938 10937 10934 10932 10932 10932 10932 10930 10929 10927 10924 10922 10919 10917 10915 10914 10914 10915 10914 10914 10913 10914 10914 10914
11000 11001 11002 11002 11004 11004 11005 11006 11006 11003 11002 10999 10996 10995 10990 10987 10981 10975 10970 10961 10955 10951 10948 10944 10942 10940 10939 10936 10936 10936 10936 10934 10933 10932 10929 10924 10919 10917 10915 10915 10915 10915 10915 10914 10913 10913 10914 10915 10917
10999 11000 11002 11003 11005 11006 11006 11005 11011 11004 11005 11002 10997 10996 10992 10987 10982 10978 10970 10962 10957 10953 10950 10947 10944 10944 10943 10940 10940 10940 10939 10937 10936 10933 10929 10924 10920 10915 10913 10913 10914 10914 10915 10914 10914 10915 10916 10918 10918
10997 11000 11002 11003 11005 11005 11008 11008 11009 11009 11008 11003 10999 10996 10992 10988 10984 10980 10972 10965 10959 10956 10952 10949 10947 10946 10945 10944 10943 10943 10942 10940 10939 10936 10933 10928 10923 10919 10916 10916 10916 10917 10919 10919 10920 10919 10918 10919 10919
10996 10999 11001 11003 11005 11006 11008 11009 11006 11008 11008 11008 11002 10998 10995 10991 10988 10982 10975 10968 10962 10958 10955 10951 10948 10948 10948 10948 10947 10946 10945 10944 10943 10941 10938 10933 10929 10927 10925 10924 10924 10923 10922 10923 10922 10922 10922 10922 10922
10995 10997 11000 11002 11004 11006 11007 11008 11008 11007 11007 11007 11005 11001 10996 10995 10991 10985 10978 10971 10966 10962 10958 10955 10952 10951 10950 10950 10950 10950 10950 10949 10948 10945 10943 10940 10937 10935 10934 10932 10931 10930 10928 10927 10927 10927 10927 10928 10927
10993 10995 10998 11000 11002 11004 11006 11006 11008 11006 11006 11005 11003 11001 10998 10997 10993 10988 10981 10974 10969 10965 10962 10958 10956 10954 10954 10953 10953 10953 10954 10954 10953 10951 10948 10947 10944 10943 10942 10940 10940 10938 10936 10935 10934 10933 10933 10933 10932
10989 10993 10995 10998 11000 11002 11004 11006 11006 11005 11004 11004 11002 11001 10999 10997 10994 10989 10983 10976 10972 10969 10966 10962 10960 10958 10958 10957 10957 10957 10959 10958 10957 10955 10954 10953 10951 10950 10948 10946 10945 10943 10942 10941 10939 10938 10938 10937 10935
10985 10989 10992 10995 10999 11000 11002 11003 11003 11002 11003 11003 11001 11000 10999 10998 10995 10990 10985 10980 10975 10972 10970 10968 10965 10962 10963 10961 10963 10962 10963 10963 10961 10960 10959 10958 10957 10956 10954 10953 10951 10950 10949 10947 10945 10944 10942 10939 10936
10981 10985 10988 10992 10996 10998 10999 11001 11002 11003 11002 11001 11000 11001 10999 10997 10995 10993 10988 10983 10979 10976 10975 10973 10970 10967 10967 10966 10967 10967 10966 10967 10965 10965 10964 10963 10962 10961 10960 10959 10958 10956 10954 10954 10951 10948 10945 10942 10940
10977 10982 10984 10989 10992 10995 10997 10999 11001 11003 11001 10999 11001 11000 10999 10996 10995 10994 10989 10986 10982 10980 10980 10978 10976 10972 10972 10972 10971 10971 10970 10970 10970 10970 10969 10968 10968 10967 10966 10964 10963 10961 10958 10957 10954 10951 10948 10945 10943
10973 10979 10980 10983 10986 10989 10992 10994 10999 11000 11000 10998 10998 10998 10999 10998 10996 10994 10992 10989 10986 10984 10983 10982 10980 10978 10977 10976 10975 10975 10974 10974 10974 10974 10974 10973 10973 10971 10971 10969 10967 10965 10963 10960 10959 10955 10951 10949 10946
10968 10975 10976 10977 10979 10984 10988 10990 10995 10996 10996 10996 10996 10997 10998 10999 10998 10995 10993 10991 10989 10986 10985 10985 10984 10983 10982 10982 10981 10980 10980 10978 10978 10979 10978 10977 10976 10976 10976 10973 10972 10970 10967 10964 10963 10960 10956 10953 10950
10963 10966 10968 10970 10972 10979 10984 10989 10992 10993 10994 10995 10993 10994 10996 10997 10996 10997 10994 10991 10990 10989 10987 10987 10988 10986 10986 10985 10985 10984 10984 10982 10982 10983 10983 10982 10981 10981 10979 10978 10976 10975 10973 10970 10967 10965 10961 10957 10954
10952 10956 10960 10964 10968 10974 10978 10983 10987 10990 10993 10993 10991 10992 10995 10995 10995 10995 10993 10992 10991 10991 10989 10990 10991 10989 10989 10989 10988 10988 10987 10987 10985 10987 10987 10986 10986 10985 10983 10983 10981 10980 10978 10975 10972 10969 10965 10962 10959
10941 10948 10953 10959 10963 10969 10971 10976 10981 10985 10987 10989 10990 10989 10992 10994 10994 10994 10993 10992 10992 10993 10991 10991 10992 10993 10992 10992 10992 10991 10991 10990 10989 10990 10990 10990 10991 10990 10988 10988 10985 10983 10982 10980 10977 10974 10969 10967 10965
10930 10939 10947 10953 10959 10963 10966 10972 10975 10980 10982 10986 10988 10987 10990 10992 10993 10993 10994 10993 10992 10993 10992 10992 10993 10994 10995 10993 10994 10994 10994 10993 10993 10993 10994 10993 10995 10994 10993 10993 10991 10988 10988 10985 10982 10979 10976 10974 10971
10921 10931 10942 10946 10949 10954 10959 10968 10972 10976 10978 10981 10986 10986 10987 10989 10991 10992 10992 10992 10991 10993 10992 10991 10992 10994 10996 10995 10995 10996 10996 10995 10996 10996 10996 10996 10999 10997 10997 10997 10996 10994 10992 10990 10986 10984 10980 10978 10974
10912 10920 10928 10937 10942 10947 10952 10957 10962 10967 10972 10975 10980 10982 10984 10986 10989 10990 10991 10992 10990 10992 10991 10990 10992 10992 10994 10996 10996 10996 10996 10997 10998 10998 10999 10999 11000 10999 10998 10998 10998 10997 10996 10995 10991 10988 10985 10982 10978
10901 10906 10914 10926 10936 10940 10946 10952 10957 10962 10965 10968 10973 10977 10980 10982 10985 10987 10990 10990 10989 10989 10989 10988 10990 10990 10993 10995 10997 10996 10996 10997 10999 10998 11001 11002 11003 11001 11000 11000 11000 11000 11000 10998 10994 10992 10990 10988 10985
10891 10890 10900 10915 10926 10931 10937 10943 10949 10956 10959 10961 10965 10970 10974 10978 10981 10984 10986 10988 10986 10986 10986 10987 10988 10989 10991 10995 10998 10998 10997 10998 10998 10999 11003 11004 11005 11003 11002 11002 11004 11004 11003 11001 10998 10998 10996 10994 10992
10881 10874 10886 10901 10913 10920 10927 10934 10938 10947 10950 10953 10957 10962 10968 10972 10975 10979 10982 10985 10985 10985 10983 10985 10987 10989 10990 10992 10996 10999 10998 10999 10999 11001 11004 11004 11005 11004 11005 11004 11005 11005 11005 11004 11003 11002 11001 10999 10997
10858 10862 10873 10889 10902 10910 10917 10923 10929 10934 10934 10940 10949 10955 10961 10965 10969 10972 10977 10982 10982 10981 10981 10983 10984 10988 10990 10991 10994 10998 10999 10999 11000 11001 11003 11004 11005 11006 11008 11006 11005 11007 11007 11006 11006 11005 11004 11002 11001
10847 10856 10860 10877 10889 10900 10905 10911 10916 10918 10923 10930 10941 10948 10956 10962 10965 10970 10972 10976 10979 10978 10979 10981 10981 10985 10987 10990 10992 10995 10998 10998 11000 11002 11003 11005 11006 11007 11008 11007 11007 11008 11008 11007 11007 11007 11006 11004 11003
10834 10843 10847 10858 10875 10886 10889 10898 10900 10907 10915 10922 10934 10942 10949 10954 10957 10961 10967 10972 10975 10976 10977 10977 10979 10982 10984 10987 10990 10993 10996 10998 10999 11002 11003 11004 11005 11006 11008 11007 11007 11008 11008 11008 11009 11008 11007 11006 11005
10819 10828 10838 10843 10856 10868 10874 10886 10889 10897 10906 10917 10929 10936 10940 10944 10948 10955 10963 10966 10970 10972 10973 10975 10976 10980 10981 10985 10988 10990 10993 10996 10999 11001 11002 11003 11003 11004 11007 11007 11007 11008 11008 11009 11010 11009 11008 11008 11007
10799 10808 10820 10827 10838 10851 10859 10870 10877 10886 10897 10909 10920 10924 10930 10934 10941 10946 10956 10961 10963 10966 10969 10973 10971 10975 10977 10981 10985 10987 10989 10993 10997 10999 11000 11001 11002 11003 11004 11006 11007 11007 11007 11008 11009 11009 11009 11008 11007
10781 10792 10803 10813 10823 10837 10841 10850 10866 10879 10891 10898 10910 10912 10919 10927 10934 10938 10949 10956 10958 10963 10964 10968 10966 10967 10972 10976 10980 10984 10988 10990 10992 10995 10998 11000 11000 11001 11002 11003 11005 11006 11007 11007 11008 11008 11009 11008 11007
10761 10775 10788 10797 10808 10817 10825 10835 10856 10868 10881 10890 10898 10904 10911 10920 10930 10935 10939 10952 10954 10957 10959 10962 10964 10965 10965 10966 10971 10977 10980 10985 10988 10991 10993 10997 10998 11000 11001 11002 11003 11005 11006 11006 11006 11007 11007 11008 11007
10741 10752 10769 10778 10786 10793 10806 10816 10839 10852 10866 10879 10888 10895 10900 10907 10916 10925 10930 10939 10946 10947 10951 10955 10958 10960 10963 10963 10965 10970 10975 10978 10982 10987 10991 10992 10995 10997 10999 11000 11001 11002 11004 11005 11005 11005 11006 11006 11006